[[{"header":{"parameterUnit":"m.s-1","parameterCategory":2,"la1":30.2991,"la2":30.254,"lo1":-89.0895,"lo2":-89.0444,"dy":0.0017,"dx":0.0017,"nx":28,"ny":28,"refTime":"2024-06-21T09:00:00:Z","depth":"0","parameterNumber":2,"parameterNumberName":"U-component_of_CURRENTS"},"data":[0,0,0,0,0,0,0,0,0,0,0,0,0,0,0,0,0,0,0,0,0,0,0,0,0,0,0,0,0,0,0,0,0,0,0,0,0,0,0,0,0,0,0,0,0,0,0,0,0,0,0,0,0,0,0,0,0,0,0.5708,0.5709,0,0.5778,0.5778,0.5778,0.586,0.5862,0.5864,0.5866,0.5834,0.5832,0.5829,0,0,0,0,0,0,0,0,0,0,0,0,0,0.5723,0.5721,0.5708,0.5709,0.5711,0.5778,0.5778,0.5778,0.586,0.5862,0.5865,0.5867,0.5835,0.5832,0.5829,0,0,0,0,0,0,0,0,0,0,0,0,0,0.5739,0.5721,0.5707,0.5766,0.5772,0.5777,0.5778,0.5778,0.586,0.5863,0.5865,0.5868,0.5836,0.5832,0.5828,0.5744,0,0,0.5816,0.5814,0,0,0,0,0,0,0,0,0.5738,0.5738,0.5755,0.5762,0.5769,0.582,0.5772,0.5764,0.5859,0.5818,0.5866,0.587,0.5823,0.582,0.5817,0.5743,0.5741,0.5816,0.5813,0.5811,0.581,0,0,0,0,0,0,0,0.5737,0.5736,0.5728,0.5757,0.5765,0.5816,0.5819,0.5771,0.5795,0.5822,0.583,0.5849,0.5825,0.5821,0.5817,0.5741,0.5816,0.5812,0.581,0.5808,0.5636,0.5634,0,0,0,0,0,0,0.5736,0.5734,0.5726,0.573,0.5769,0.5813,0.5817,0.5794,0.5798,0.5805,0.5846,0.5853,0.5826,0.5821,0.5816,0.576,0.5811,0.5808,0.5805,0.5639,0.5636,0.5634,0,0,0,0,0,0,0.5735,0.5732,0.5723,0.5743,0.5747,0.581,0.5784,0.5794,0.5817,0.5819,0.5823,0.5863,0.5828,0.5822,0.5791,0.5758,0.5806,0.5802,0.5641,0.5638,0.5635,0.562,0,0,0,0,0,0,0.5734,0.573,0.5709,0.5741,0.5746,0.5751,0.5782,0.5794,0.5826,0.5836,0.5833,0.5832,0.583,0.5797,0.5787,0.5753,0.5799,0.5644,0.564,0.5636,0.5623,0.5617,0.5611,0,0,0,0,0,0.5734,0.5684,0.5706,0.5707,0.5713,0.5752,0.5758,0.5809,0.5824,0.5837,0.5827,0.5834,0.5764,0.5792,0.578,0.5745,0.5646,0.5641,0.5636,0.5626,0.5618,0.5611,0,0,0,0,0,0,0.5624,0.569,0.5715,0.5671,0.5727,0.577,0.5768,0.5808,0.5808,0.5802,0.5808,0.5805,0.5776,0.5747,0.5778,0.5681,0.5703,0.5696,0.5699,0.5691,0.5685,0.5655,0.5796,0,0,0,0,0,0.5602,0.5612,0.5674,0.5637,0.5661,0.5715,0.5733,0.5774,0.5786,0.5792,0.5802,0.5774,0.5736,0.571,0.5691,0.5619,0.5647,0.5585,0.5579,0.5575,0.5539,0.5582,0.5578,0.5618,0.5618,0.5618,0,0,0.5545,0.5583,0.5582,0.5623,0.5653,0.5667,0.5731,0.5754,0.575,0.5778,0.5759,0.5769,0.572,0.5669,0.5647,0.5643,0.5583,0.5569,0.5565,0.5531,0.5577,0.5574,0.5571,0.5615,0.5615,0.5616,0,0,0.5458,0.547,0.5472,0.5517,0.5587,0.5623,0.5638,0.5701,0.5716,0.5703,0.5721,0.5694,0.5656,0.5611,0.5574,0.5503,0.5572,0.5517,0.5435,0.5479,0.5477,0.5475,0.5543,0.5547,0.5489,0.5489,0.5489,0,0.5394,0.54,0.5472,0.5486,0.5523,0.5602,0.5612,0.561,0.5659,0.5662,0.5692,0.5646,0.5604,0.5518,0.5488,0.5485,0.5558,0.5476,0.5475,0.5474,0.5473,0.5542,0.5547,0.5488,0.5488,0.5488,0.5488,0,0.5332,0.5342,0.5335,0.5394,0.5429,0.5451,0.5494,0.5514,0.5549,0.5569,0.5551,0.5519,0.5499,0.547,0.5439,0.5397,0.5472,0.5494,0.5506,0.5469,0.5543,0.5549,0.5486,0.5486,0.5487,0.5487,0,0,0.5178,0.5289,0.5279,0.5312,0.5402,0.541,0.5404,0.5438,0.5425,0.5452,0.5458,0.5351,0.5397,0.5353,0.5348,0.5328,0.5367,0.5397,0.5401,0.5485,0.5522,0.5544,0.5554,0.5439,0.5439,0.5439,0.5593,0,0.5125,0.5151,0.5222,0.522,0.5247,0.533,0.5314,0.5337,0.5374,0.5394,0.5363,0.5359,0.5333,0.5345,0.5324,0.539,0.5377,0.5325,0.5524,0.5528,0.557,0.5557,0.5414,0.5537,0.5599,0.56,0.5601,0,0.5043,0.5093,0.5114,0.5181,0.5192,0.5193,0.5232,0.5234,0.5266,0.5302,0.5321,0.5357,0.5332,0.5327,0.5388,0.5392,0.5426,0.5453,0.5462,0.5478,0.5558,0.5573,0.5546,0.5443,0.561,0.5609,0.5609,0,0.4935,0.4994,0.5023,0.5048,0.5131,0.5137,0.517,0.5205,0.5249,0.5274,0.5367,0.5342,0.5423,0.5432,0.5503,0.5477,0.5615,0.5596,0.5632,0.5638,0.5539,0.5534,0.5437,0.5596,0.5595,0.5595,0.5594,0,0.4868,0.4869,0.497,0.4984,0.4994,0.5058,0.5078,0.5108,0.5207,0.5285,0.5332,0.5432,0.5468,0.5575,0.5557,0.5655,0.5679,0.5607,0.5665,0.5532,0.5526,0.545,0.5389,0.5601,0.5599,0.5598,0.5597,0,0.4755,0.4824,0.4856,0.4938,0.4959,0.4959,0.5091,0.5112,0.5223,0.536,0.5402,0.5572,0.5703,0.5744,0.5804,0.5784,0.5667,0.5819,0.5674,0.5708,0.5595,0.5539,0.5264,0.5105,0.5862,0.5863,0.5865,0,0.4713,0.4725,0.4818,0.4854,0.4903,0.4944,0.4989,0.5098,0.5174,0.5449,0.5526,0.573,0.5835,0.5979,0.5941,0.594,0.5728,0.5813,0.5658,0.5552,0.5534,0.5277,0.5143,0.5546,0.5544,0.5543,0.5541,0,0.4661,0.4693,0.4744,0.4825,0.4874,0.492,0.501,0.5078,0.5242,0.5384,0.5591,0.5706,0.5918,0.5864,0.5917,0.5887,0.5555,0.5786,0.5694,0.5271,0.4961,0.4852,0.5515,0.5529,0.5531,0.5531,0.5532,0.5533,0.4637,0.4662,0.4747,0.4791,0.4848,0.4877,0.4848,0.498,0.508,0.5212,0.5468,0.5542,0.5722,0.5769,0.5716,0.5602,0.549,0.5445,0.5395,0.5151,0.4921,0.5571,0.564,0.5642,0.5643,0.5644,0.5646,0,0.4613,0.4658,0.4718,0.4753,0.4738,0.4792,0.4837,0.4769,0.4797,0.4981,0.509,0.5239,0.5264,0.5349,0.5405,0.5253,0.4944,0.5111,0.4694,0.4587,0.5213,0.5126,0.5063,0.5063,0.5063,0.5063,0.5063,0.5063,0.4626,0.4654,0.4667,0.4623,0.4619,0.4489,0.4448,0.4396,0.4437,0.4435,0.4471,0.4602,0.4964,0.5173,0.5096,0.4969,0.4573,0.4384,0.4318,0.4795,0.4819,0.4843,0.4745,0.4604,0.4603,0.3504,0.3496,0.349]},{"header":{"parameterUnit":"m.s-1","parameterCategory":2,"la1":30.2991,"la2":30.254,"lo1":-89.0895,"lo2":-89.0444,"dy":0.0017,"dx":0.0017,"nx":28,"ny":28,"refTime":"2024-06-21T09:00:00:Z","depth":"0","parameterNumber":3,"parameterNumberName":"V-component_of_CURRENTS"},"data":[0,0,0,0,0,0,0,0,0,0,0,0,0,0,0,0,0,0,0,0,0,0,0,0,0,0,0,0,0,0,0,0,0,0,0,0,0,0,0,0,0,0,0,0,0,0,0,0,0,0,0,0,0,0,0,0,0,0,0.0081,0.008,0,0.0,-0.0,-0.0001,-0.005,-0.005,-0.0051,-0.0051,-0.0148,-0.015,-0.0152,0,0,0,0,0,0,0,0,0,0,0,0,0,0.015,0.0149,0.0081,0.008,0.0079,0.0001,-0.0,-0.0001,-0.005,-0.005,-0.0051,-0.0051,-0.0147,-0.015,-0.0152,0,0,0,0,0,0,0,0,0,0,0,0,0,0.0101,0.0149,0.0081,0.0044,0.004,0.0001,-0.0,-0.0002,-0.005,-0.005,-0.0051,-0.0051,-0.0146,-0.015,-0.0153,-0.0163,0,0,-0.0163,-0.0165,0,0,0,0,0,0,0,0,0.0104,0.0099,0.0051,0.0047,0.0042,-0.0016,-0.0012,-0.0057,-0.005,-0.0014,-0.0051,-0.0052,-0.0106,-0.0113,-0.0124,-0.0168,-0.0172,-0.0163,-0.0166,-0.0167,-0.0168,0,0,0,0,0,0,0,0.0108,0.0102,0.005,0.0049,0.0044,0.0017,0.001,-0.002,-0.0055,-0.0017,-0.0022,-0.0032,-0.0108,-0.0121,-0.0127,-0.0173,-0.0163,-0.0166,-0.0168,-0.017,-0.0204,-0.0203,0,0,0,0,0,0,0.0118,0.0105,0.0053,0.0048,0.0071,0.0016,0.0008,0.0004,-0.0055,-0.0065,-0.0032,-0.0034,-0.0115,-0.0123,-0.0131,-0.0091,-0.0167,-0.017,-0.0172,-0.0205,-0.0203,-0.0202,0,0,0,0,0,0,0.012,0.0114,0.0056,0.0073,0.0064,0.0016,0.0011,0.0003,-0.0004,-0.0066,-0.0076,-0.0029,-0.0116,-0.0126,-0.0141,-0.0098,-0.0172,-0.0175,-0.0206,-0.0204,-0.0203,-0.0047,0,0,0,0,0,0,0.0122,0.0116,0.012,0.0074,0.0063,0.0063,0.0011,0.0001,-0.0011,-0.0014,-0.0067,-0.0077,-0.0117,-0.0135,-0.0144,-0.0104,-0.0177,-0.0207,-0.0205,-0.0203,-0.0054,-0.0041,-0.0029,0,0,0,0,0,0.0125,0.0145,0.0121,0.0115,0.007,0.0065,0.0059,0.0022,-0.0009,0.001,-0.0035,-0.0075,-0.0128,-0.0137,-0.0148,-0.0107,-0.0208,-0.0206,-0.0203,-0.006,-0.0043,-0.003,0,0,0,0,0,0,0.019,0.014,0.0114,0.012,0.0104,0.0057,0.0066,0.0033,0.0011,0.0005,-0.0061,-0.0073,-0.0073,-0.0115,-0.0123,-0.0113,-0.0175,-0.0174,-0.0062,-0.0047,-0.0035,-0.0009,-0.018,0,0,0,0,0,0.0202,0.0202,0.0156,0.0168,0.0159,0.0112,0.0103,0.0081,0.0049,0.0039,-0.0005,-0.0048,-0.0072,-0.0079,-0.0114,-0.0104,-0.0161,-0.0087,-0.0074,-0.0063,-0.0051,-0.0111,-0.0103,-0.0194,-0.0194,-0.0194,0,0,0.0229,0.0205,0.0203,0.0181,0.0161,0.0181,0.0108,0.0111,0.0134,0.0032,0.0046,-0.0011,-0.0064,-0.0054,-0.0056,-0.0079,-0.0064,-0.006,-0.005,-0.0044,-0.0108,-0.0099,-0.0091,-0.0192,-0.0192,-0.0193,0,0,0.0301,0.0265,0.0292,0.0285,0.0264,0.024,0.0247,0.0205,0.0194,0.0192,0.0126,0.0093,0.0056,0.003,0.0012,0.0068,-0.0006,0.0061,0.0158,0.0101,0.0108,0.0114,0.0071,0.0071,0.0078,0.0079,0.0079,0,0.0338,0.0359,0.0305,0.0337,0.0343,0.0277,0.0321,0.0308,0.0268,0.0264,0.022,0.0151,0.0098,0.0115,0.0135,0.0099,0.0056,0.0113,0.0119,0.0123,0.0126,0.008,0.0078,0.0087,0.0086,0.0085,0.0084,0,0.0428,0.0447,0.0469,0.0483,0.0489,0.0516,0.0487,0.0491,0.0451,0.042,0.0406,0.0323,0.0282,0.0265,0.0219,0.023,0.019,0.0134,0.0087,0.0145,0.0092,0.0088,0.0098,0.0095,0.0093,0.0091,0,0,0.0509,0.0526,0.0537,0.0569,0.0564,0.0587,0.0625,0.0636,0.0666,0.0602,0.0626,0.0559,0.0487,0.046,0.0391,0.0347,0.0328,0.0267,0.0261,0.0237,0.0215,0.0196,0.0188,0.0275,0.0275,0.0275,0.0177,0,0.0598,0.0689,0.0668,0.0764,0.0807,0.0766,0.0813,0.0813,0.0787,0.0793,0.0698,0.0682,0.0574,0.0554,0.0496,0.0371,0.0321,0.036,0.0152,0.0146,0.0131,0.0184,0.0233,0.015,0.0172,0.0171,0.017,0,0.0694,0.0742,0.0847,0.0903,0.0918,0.0969,0.1021,0.1051,0.1035,0.101,0.0962,0.0869,0.0807,0.0692,0.0515,0.0547,0.0397,0.0287,0.0279,0.0203,0.0119,0.0089,0.0139,-0.0128,0.0162,0.0163,0.0163,0,0.079,0.0867,0.0958,0.0979,0.1033,0.108,0.111,0.1121,0.1174,0.1145,0.1176,0.1043,0.1013,0.0803,0.0571,0.0539,0.0368,0.0284,0.0125,0.0121,0.0092,0.0087,-0.0132,0.0144,0.0144,0.0144,0.0144,0,0.0889,0.0963,0.1016,0.1071,0.1192,0.1188,0.1306,0.1312,0.1351,0.1453,0.1299,0.1353,0.1039,0.09,0.0641,0.0396,0.0414,0.0157,0.0099,0.0149,0.015,-0.0144,-0.029,0.014,0.0141,0.0142,0.0142,0,0.0984,0.1011,0.1124,0.1205,0.1244,0.1334,0.145,0.153,0.1554,0.1687,0.1689,0.1595,0.1417,0.1094,0.0769,0.0526,0.0108,0.0151,0.0241,0.0196,-0.0217,-0.0354,-0.0634,-0.0757,-0.0044,-0.0045,-0.0046,0,0.1038,0.1108,0.1235,0.1311,0.1357,0.1483,0.1576,0.163,0.1737,0.1863,0.1949,0.1824,0.179,0.131,0.0823,0.0368,0.0093,0.0104,0.0033,-0.0217,-0.0414,-0.0523,-0.0615,0.0056,0.0056,0.0056,0.0056,0,0.1143,0.1186,0.1274,0.1434,0.1551,0.1695,0.1841,0.1963,0.2068,0.2212,0.237,0.2357,0.1926,0.1495,0.0857,0.053,-0.0067,0.009,-0.0198,-0.0367,-0.0472,-0.0623,0.0097,0.0057,0.0057,0.0057,0.0057,0.0057,0.1214,0.1295,0.1406,0.1558,0.17,0.189,0.203,0.2216,0.244,0.2684,0.267,0.273,0.2113,0.1256,0.077,-0.007,-0.01,-0.0326,-0.0473,-0.0564,-0.0679,0.0055,-0.0037,-0.0038,-0.0038,-0.0039,-0.0039,0,0.1289,0.1378,0.152,0.1702,0.1867,0.1933,0.2195,0.2359,0.2656,0.2898,0.3051,0.2809,0.2035,0.1228,0.0111,-0.0507,-0.0739,-0.0849,-0.1005,-0.1076,-0.0444,-0.0436,-0.0581,-0.0581,-0.058,-0.058,-0.058,-0.058,0.1331,0.1461,0.1532,0.18,0.1944,0.2181,0.234,0.2616,0.2838,0.3143,0.3229,0.323,0.2642,0.0653,-0.0734,-0.1067,-0.1484,-0.1577,-0.1821,-0.1404,-0.1367,-0.1332,-0.136,-0.1697,-0.1699,-0.2363,-0.237,-0.2376]}],[{"header":{"parameterUnit":"m.s-1","parameterCategory":2,"la1":30.2991,"la2":30.254,"lo1":-89.0895,"lo2":-89.0444,"dy":0.0017,"dx":0.0017,"nx":28,"ny":28,"refTime":"2024-06-21T09:00:00:Z","depth":"2","parameterNumber":2,"parameterNumberName":"U-component_of_CURRENTS"},"data":[0,0,0,0,0,0,0,0,0,0,0,0,0,0,0,0,0,0,0,0,0,0,0,0,0,0,0,0,0,0,0,0,0,0,0,0,0,0,0,0,0,0,0,0,0,0,0,0,0,0,0,0,0,0,0,0,0,0,0.4082,0.4083,0,0.4112,0.4112,0.4112,0.4159,0.4161,0.4163,0.4164,0.418,0.4179,0.4178,0,0,0,0,0,0,0,0,0,0,0,0,0,0.4031,0.4031,0.4082,0.4084,0.4085,0.4112,0.4112,0.4112,0.4159,0.4161,0.4163,0.4165,0.4181,0.4179,0.4178,0,0,0,0,0,0,0,0,0,0,0,0,0,0.4047,0.4031,0.4082,0.4119,0.4123,0.4113,0.4112,0.4111,0.4159,0.4161,0.4164,0.4166,0.4181,0.418,0.4178,0.4116,0,0,0.4173,0.4172,0,0,0,0,0,0,0,0,0.4046,0.4048,0.4112,0.4116,0.4121,0.4143,0.41,0.4115,0.4158,0.4135,0.4164,0.4167,0.4171,0.417,0.4157,0.4116,0.4117,0.4172,0.4171,0.4171,0.417,0,0,0,0,0,0,0,0.4045,0.4047,0.4085,0.4113,0.4119,0.4122,0.4127,0.4102,0.4131,0.4137,0.4143,0.416,0.4172,0.4158,0.4158,0.4117,0.4172,0.4171,0.417,0.4169,0.4182,0.4184,0,0,0,0,0,0,0.4059,0.4046,0.4084,0.4087,0.41,0.4122,0.4126,0.4126,0.4132,0.4138,0.4158,0.4163,0.416,0.416,0.4159,0.4199,0.4171,0.4169,0.4168,0.4181,0.4183,0.4184,0,0,0,0,0,0,0.4057,0.4061,0.4083,0.4076,0.408,0.4121,0.4119,0.4125,0.415,0.4149,0.4154,0.4184,0.4162,0.4161,0.4185,0.4196,0.4168,0.4167,0.4179,0.4182,0.4183,0.4206,0,0,0,0,0,0,0.4055,0.406,0.4056,0.4076,0.4081,0.4099,0.4118,0.4124,0.4159,0.4166,0.4171,0.4173,0.4164,0.4188,0.4184,0.4193,0.4165,0.4178,0.418,0.4183,0.4203,0.4209,0.4213,0,0,0,0,0,0.4053,0.4032,0.4054,0.406,0.4076,0.41,0.4101,0.4133,0.4158,0.4165,0.4189,0.4175,0.4202,0.4187,0.4182,0.4191,0.4176,0.418,0.4183,0.4201,0.4208,0.4213,0,0,0,0,0,0,0.3992,0.4037,0.4061,0.4052,0.409,0.4112,0.4116,0.4146,0.4165,0.418,0.4182,0.4185,0.4221,0.4202,0.4186,0.4208,0.419,0.4192,0.4206,0.4212,0.4217,0.4234,0.4164,0,0,0,0,0,0.3981,0.3993,0.4036,0.4035,0.4052,0.409,0.4104,0.4136,0.4161,0.4173,0.4183,0.4197,0.4218,0.4216,0.4227,0.4215,0.424,0.4224,0.4228,0.4232,0.4246,0.4307,0.4318,0.4195,0.4195,0.4195,0,0,0.3953,0.3988,0.3988,0.4026,0.4052,0.4069,0.4103,0.4136,0.4158,0.4168,0.4191,0.422,0.4227,0.424,0.4251,0.4227,0.4281,0.4236,0.4239,0.4251,0.4311,0.4323,0.4334,0.4197,0.4196,0.4196,0,0,0.3919,0.3941,0.3946,0.3976,0.4038,0.4063,0.4084,0.4126,0.4155,0.4182,0.4216,0.4259,0.4253,0.4275,0.4282,0.4314,0.4321,0.4316,0.4327,0.4386,0.4397,0.4407,0.4452,0.4465,0.4297,0.4297,0.4297,0,0.3887,0.3909,0.3949,0.3969,0.4005,0.4066,0.409,0.4107,0.4157,0.4203,0.4198,0.4275,0.4271,0.4323,0.4334,0.4324,0.436,0.4299,0.4392,0.4403,0.4412,0.4456,0.4471,0.4299,0.4298,0.4298,0.4298,0,0.3867,0.3889,0.3895,0.3949,0.3983,0.4015,0.4068,0.4114,0.4163,0.4202,0.4287,0.4295,0.4355,0.4349,0.434,0.4411,0.4417,0.4408,0.4375,0.4426,0.4469,0.4484,0.4301,0.43,0.43,0.4299,0,0,0.3785,0.3868,0.3871,0.3908,0.3989,0.4012,0.4073,0.4159,0.4219,0.426,0.4342,0.437,0.4416,0.4429,0.4438,0.4459,0.4539,0.4454,0.4456,0.4494,0.4674,0.4637,0.465,0.4551,0.4554,0.4556,0.4675,0,0.3771,0.3804,0.3864,0.3903,0.3928,0.4027,0.4077,0.4163,0.4239,0.4317,0.4378,0.444,0.4432,0.4467,0.45,0.455,0.4581,0.4508,0.4624,0.4627,0.4585,0.4667,0.4297,0.4369,0.469,0.4692,0.4694,0,0.3734,0.3775,0.3815,0.3916,0.3938,0.3976,0.4118,0.4174,0.4309,0.4374,0.4477,0.4526,0.4609,0.4566,0.4691,0.4652,0.4672,0.4682,0.4687,0.4658,0.4619,0.4372,0.4384,0.4719,0.4717,0.4715,0.4714,0,0.366,0.3738,0.3782,0.3809,0.3921,0.3988,0.4065,0.4203,0.4279,0.4424,0.4507,0.4613,0.4692,0.474,0.4798,0.4755,0.4916,0.4858,0.4844,0.4841,0.4551,0.4518,0.4934,0.4934,0.4934,0.4934,0.4933,0,0.3616,0.3645,0.3752,0.3767,0.3839,0.3943,0.4046,0.4149,0.4303,0.44,0.4535,0.4632,0.4742,0.485,0.4854,0.4928,0.4983,0.4877,0.4882,0.4549,0.4516,0.4834,0.4821,0.4938,0.4937,0.4936,0.4935,0,0.3523,0.3591,0.3642,0.3764,0.3801,0.3856,0.4022,0.409,0.4268,0.4407,0.4462,0.4688,0.4845,0.4943,0.5043,0.502,0.506,0.5059,0.4665,0.4622,0.4921,0.4908,0.5049,0.5049,0.5049,0.5049,0.5049,0,0.3481,0.3495,0.3608,0.3638,0.3699,0.3797,0.3859,0.4042,0.4129,0.4426,0.4481,0.4719,0.4847,0.5033,0.5028,0.5069,0.5114,0.4733,0.4574,0.4949,0.494,0.4926,0.4913,0.4189,0.4182,0.4176,0.4171,0,0.3404,0.3451,0.3493,0.3553,0.3615,0.3675,0.3792,0.3853,0.4082,0.4223,0.4427,0.4563,0.4801,0.471,0.4816,0.4769,0.4696,0.462,0.5125,0.4235,0.4152,0.4139,0.4151,0.412,0.4125,0.4129,0.4132,0.4134,0.3349,0.3354,0.341,0.3447,0.3506,0.3534,0.3537,0.3676,0.379,0.396,0.4211,0.4306,0.4415,0.4404,0.4292,0.4213,0.4522,0.4288,0.4299,0.4317,0.4215,0.4138,0.4084,0.4088,0.4092,0.4096,0.4099,0,0.3244,0.3259,0.3294,0.3315,0.3298,0.3397,0.3457,0.3427,0.3479,0.3693,0.3837,0.365,0.3654,0.3743,0.3564,0.3595,0.3481,0.3429,0.3226,0.3285,0.3336,0.3173,0.277,0.2765,0.276,0.2756,0,0,0.3195,0.3162,0.3158,0.3083,0.3105,0.3038,0.3034,0.3028,0.311,0.3135,0.3179,0.3504,0.367,0.3168,0.3127,0.2904,0.3047,0.2793,0.3878,0.37,0.3742,0.3878,0.3704,0,0,0,0,0]},{"header":{"parameterUnit":"m.s-1","parameterCategory":2,"la1":30.2991,"la2":30.254,"lo1":-89.0895,"lo2":-89.0444,"dy":0.0017,"dx":0.0017,"nx":28,"ny":28,"refTime":"2024-06-21T09:00:00:Z","depth":"2","parameterNumber":3,"parameterNumberName":"V-component_of_CURRENTS"},"data":[0,0,0,0,0,0,0,0,0,0,0,0,0,0,0,0,0,0,0,0,0,0,0,0,0,0,0,0,0,0,0,0,0,0,0,0,0,0,0,0,0,0,0,0,0,0,0,0,0,0,0,0,0,0,0,0,0,0,0.029,0.0289,0,0.0235,0.0234,0.0234,0.0197,0.0196,0.0196,0.0195,0.0088,0.0086,0.0083,0,0,0,0,0,0,0,0,0,0,0,0,0,0.0314,0.0315,0.029,0.0289,0.0288,0.0235,0.0234,0.0234,0.0197,0.0196,0.0196,0.0195,0.0089,0.0086,0.0083,0,0,0,0,0,0,0,0,0,0,0,0,0,0.0287,0.0315,0.029,0.0262,0.0259,0.0235,0.0234,0.0234,0.0197,0.0196,0.0196,0.0195,0.009,0.0086,0.0083,0.0071,0,0,0.0071,0.007,0,0,0,0,0,0,0,0,0.0289,0.0287,0.0267,0.0264,0.0261,0.0221,0.0204,0.0176,0.0197,0.0222,0.0195,0.0195,0.0127,0.012,0.0114,0.0066,0.0062,0.0071,0.0069,0.0067,0.0066,0,0,0,0,0,0,0,0.0291,0.0289,0.0269,0.0266,0.0262,0.0236,0.0232,0.0198,0.0179,0.022,0.0216,0.0208,0.0125,0.0118,0.0111,0.006,0.0071,0.0068,0.0065,0.0064,-0.0022,-0.0023,0,0,0,0,0,0,0.0298,0.0291,0.0271,0.0268,0.0272,0.0236,0.0232,0.0235,0.018,0.0171,0.0209,0.0207,0.0125,0.0116,0.0107,0.0098,0.0067,0.0064,0.0061,-0.0022,-0.0022,-0.0023,0,0,0,0,0,0,0.0299,0.0298,0.0273,0.0276,0.0271,0.0237,0.024,0.0234,0.0228,0.0172,0.0162,0.0208,0.0124,0.0112,0.0083,0.0093,0.0062,0.0059,-0.0022,-0.0022,-0.0023,0.0073,0,0,0,0,0,0,0.0301,0.0299,0.0304,0.0277,0.0271,0.0272,0.0241,0.0234,0.0223,0.022,0.0168,0.0158,0.0122,0.0089,0.0079,0.0087,0.0056,-0.0022,-0.0022,-0.0022,0.007,0.0077,0.0082,0,0,0,0,0,0.0302,0.0316,0.0305,0.0302,0.028,0.0273,0.0268,0.0241,0.0223,0.0231,0.0191,0.0159,0.008,0.0086,0.0075,0.0082,-0.0022,-0.0022,-0.0022,0.0068,0.0075,0.0082,0,0,0,0,0,0,0.0333,0.0313,0.03,0.0308,0.0295,0.0266,0.0267,0.0247,0.0223,0.0217,0.0163,0.0151,0.0126,0.0088,0.0095,0.0053,0.0022,0.0019,0.0094,0.0101,0.0107,0.0137,0.0053,0,0,0,0,0,0.0342,0.0347,0.0323,0.0332,0.0327,0.0298,0.029,0.0275,0.0248,0.0237,0.0198,0.0153,0.0117,0.0098,0.006,0.0042,-0.0001,0.0035,0.0041,0.0046,0.0061,-0.0,0.0002,-0.0023,-0.0023,-0.0023,0,0,0.0356,0.0346,0.0348,0.0338,0.0325,0.0334,0.0293,0.0291,0.0298,0.0228,0.0222,0.0173,0.0115,0.0096,0.0081,0.0067,0.0031,0.0046,0.0052,0.0064,-0.0,0.0002,0.0005,-0.0023,-0.0023,-0.0023,0,0,0.0393,0.038,0.0397,0.0392,0.0377,0.0363,0.0366,0.034,0.0329,0.0315,0.0263,0.0222,0.0171,0.0133,0.0106,0.0118,0.0063,0.0102,0.016,0.0101,0.0103,0.0104,0.0059,0.0055,0.0107,0.0107,0.0108,0,0.0408,0.0429,0.0402,0.0418,0.0421,0.0382,0.0407,0.0392,0.036,0.0355,0.0325,0.0246,0.0189,0.0166,0.0168,0.0133,0.0097,0.0144,0.0111,0.0111,0.011,0.0064,0.0058,0.0112,0.0111,0.0111,0.0111,0,0.0458,0.0473,0.0485,0.0494,0.0496,0.0511,0.049,0.0489,0.0463,0.044,0.041,0.0333,0.0289,0.0257,0.0216,0.0191,0.0165,0.0126,0.01,0.0119,0.0068,0.0061,0.0119,0.0117,0.0116,0.0114,0,0,0.05,0.0516,0.0522,0.0546,0.0538,0.0555,0.0567,0.057,0.059,0.0533,0.0542,0.0458,0.0413,0.0378,0.0314,0.0259,0.0214,0.0203,0.0197,0.0173,0.0097,0.0064,0.0053,0.0173,0.0172,0.0171,0.0065,0,0.0548,0.0604,0.0593,0.0652,0.0682,0.0658,0.0682,0.0678,0.0656,0.0654,0.0566,0.0544,0.0461,0.0443,0.0374,0.0259,0.02,0.0248,0.0069,0.0065,0.0045,0.0045,0.0087,-0.0005,0.0058,0.0056,0.0055,0,0.0603,0.0635,0.0702,0.0748,0.076,0.079,0.0831,0.0847,0.0823,0.0802,0.0756,0.0685,0.0606,0.0525,0.0346,0.0384,0.0253,0.0153,0.0146,0.008,0.0019,-0.0018,-0.0021,0.0043,0.0044,0.0045,0.0046,0,0.0663,0.0714,0.0778,0.0791,0.0833,0.0867,0.0892,0.0896,0.0933,0.0901,0.0916,0.0797,0.0757,0.0578,0.0373,0.0358,0.017,0.0116,-0.0036,-0.004,-0.0056,-0.006,-0.0019,-0.0019,-0.0019,-0.0018,-0.0018,0,0.0722,0.0771,0.0818,0.0854,0.0951,0.0948,0.1042,0.1044,0.1065,0.1131,0.1005,0.1022,0.0768,0.0631,0.0418,0.0183,0.0199,-0.002,-0.007,-0.0023,-0.0022,-0.0025,-0.0024,-0.0022,-0.0021,-0.0021,-0.002,0,0.078,0.0801,0.0883,0.0949,0.0983,0.1058,0.1155,0.1218,0.1222,0.1302,0.13,0.1192,0.1018,0.0753,0.0467,0.0262,0.0022,-0.0071,0.0011,-0.0028,-0.0161,-0.0154,-0.0253,-0.0255,-0.0257,-0.0259,-0.026,0,0.0811,0.086,0.0967,0.1033,0.1071,0.1179,0.1259,0.1298,0.1377,0.1421,0.1471,0.1331,0.1268,0.0835,0.0443,0.0067,0.0014,-0.0154,-0.0192,-0.0147,-0.0186,-0.0176,-0.0167,-0.0177,-0.0177,-0.0177,-0.0178,0,0.0877,0.0915,0.0989,0.113,0.1231,0.1358,0.1476,0.1567,0.1633,0.1695,0.1756,0.1707,0.1316,0.0939,0.0414,0.0161,-0.0095,-0.0175,-0.0152,-0.0121,-0.0083,-0.0118,-0.0111,-0.0181,-0.018,-0.018,-0.018,-0.018,0.0931,0.0998,0.1101,0.1238,0.1361,0.1527,0.1645,0.1772,0.1918,0.2032,0.1974,0.1907,0.148,0.0815,0.0356,-0.0129,-0.0107,-0.028,-0.0276,-0.0272,-0.0241,-0.0208,-0.0323,-0.0323,-0.0323,-0.0324,-0.0324,0,0.1001,0.1077,0.1199,0.1364,0.1506,0.1571,0.1783,0.1894,0.2078,0.2177,0.222,0.1817,0.139,0.0889,0.017,-0.0254,-0.0275,-0.0389,-0.0322,-0.0315,-0.031,-0.0279,-0.0373,-0.0375,-0.0376,-0.0377,0,0,0.1038,0.1159,0.1219,0.1457,0.1582,0.1788,0.1921,0.2081,0.2195,0.2284,0.2252,0.2168,0.1556,0.1026,0.0448,0.0031,-0.004,-0.0044,0.0045,0.0201,0.0211,-0.0196,-0.0135,0,0,0,0,0]}],[{"header":{"parameterUnit":"m.s-1","parameterCategory":2,"la1":30.2991,"la2":30.254,"lo1":-89.0895,"lo2":-89.0444,"dy":0.0017,"dx":0.0017,"nx":28,"ny":28,"refTime":"2024-06-21T09:00:00:Z","depth":"4","parameterNumber":2,"parameterNumberName":"U-component_of_CURRENTS"},"data":[0,0,0,0,0,0,0,0,0,0,0,0,0,0,0,0,0,0,0,0,0,0,0,0,0,0,0,0,0,0,0,0,0,0,0,0,0,0,0,0,0,0,0,0,0,0,0,0,0,0,0,0,0,0,0,0,0,0,0.2359,0.236,0,0.2453,0.2454,0.2455,0.2545,0.2547,0.2548,0.2549,0.2733,0.2736,0.274,0,0,0,0,0,0,0,0,0,0,0,0,0,0.2256,0.2257,0.2358,0.236,0.2361,0.2453,0.2454,0.2455,0.2545,0.2547,0.2548,0.2549,0.2731,0.2736,0.274,0,0,0,0,0,0,0,0,0,0,0,0,0,0.232,0.2258,0.2358,0.2417,0.2423,0.2453,0.2454,0.2456,0.2545,0.2547,0.2548,0.255,0.273,0.2735,0.2741,0.2741,0,0,0.2758,0.2761,0,0,0,0,0,0,0,0,0.2316,0.2324,0.2407,0.2413,0.242,0.2489,0.2485,0.2556,0.2544,0.2498,0.2549,0.2551,0.2658,0.267,0.2682,0.2749,0.2757,0.2759,0.2762,0.2765,0.2766,0,0,0,0,0,0,0,0.2312,0.232,0.2396,0.2408,0.2416,0.2439,0.245,0.2499,0.2569,0.2502,0.2509,0.252,0.2663,0.2676,0.2688,0.276,0.2759,0.2764,0.2767,0.277,0.3008,0.3011,0,0,0,0,0,0,0.2299,0.2316,0.2393,0.2398,0.2372,0.2439,0.2452,0.2465,0.2567,0.2583,0.2518,0.2524,0.2666,0.2681,0.2694,0.2852,0.2765,0.277,0.2773,0.3005,0.3009,0.3012,0,0,0,0,0,0,0.2296,0.2305,0.2389,0.2359,0.2372,0.2439,0.2454,0.2466,0.2534,0.2577,0.2596,0.258,0.2668,0.2686,0.2791,0.2854,0.2773,0.2778,0.3002,0.3006,0.301,0.3069,0,0,0,0,0,0,0.2293,0.2303,0.2335,0.2359,0.2373,0.2442,0.2452,0.2467,0.2534,0.2544,0.2635,0.2651,0.2671,0.2782,0.2796,0.286,0.2782,0.2998,0.3004,0.3009,0.3064,0.3075,0.3085,0,0,0,0,0,0.2289,0.2309,0.2336,0.2347,0.2406,0.2444,0.2455,0.2507,0.2536,0.2574,0.2642,0.2651,0.2827,0.2789,0.2805,0.2872,0.2995,0.3002,0.3008,0.3059,0.3073,0.3085,0,0,0,0,0,0,0.2279,0.2321,0.2351,0.2385,0.2432,0.246,0.2507,0.2535,0.2615,0.2648,0.2684,0.2705,0.2824,0.2839,0.2796,0.2958,0.2915,0.2925,0.2948,0.2961,0.2972,0.2969,0.2787,0,0,0,0,0,0.229,0.2323,0.2365,0.24,0.2432,0.2481,0.2514,0.2551,0.2608,0.2648,0.271,0.2783,0.2852,0.2901,0.2962,0.3045,0.3055,0.3101,0.3112,0.3121,0.3131,0.3198,0.3215,0.3033,0.3033,0.3033,0,0,0.229,0.2324,0.2342,0.2402,0.245,0.2497,0.2508,0.2577,0.2628,0.2655,0.2772,0.2831,0.2885,0.2985,0.3039,0.3012,0.3178,0.3129,0.3136,0.3142,0.3207,0.3224,0.3239,0.3038,0.3037,0.3036,0,0,0.2301,0.2352,0.2388,0.2433,0.2514,0.2544,0.2575,0.2645,0.2702,0.2797,0.2841,0.2937,0.3037,0.3089,0.3123,0.323,0.3236,0.3262,0.3313,0.3378,0.3393,0.3406,0.3434,0.3449,0.3263,0.3263,0.3263,0,0.2311,0.2359,0.2405,0.2456,0.2507,0.257,0.2627,0.268,0.2777,0.2843,0.2852,0.3037,0.3082,0.32,0.3237,0.3255,0.3281,0.3254,0.339,0.3403,0.3416,0.3441,0.3457,0.3267,0.3266,0.3266,0.3266,0,0.2338,0.2399,0.243,0.2517,0.2575,0.2637,0.2712,0.28,0.2876,0.2931,0.3088,0.3148,0.3262,0.3289,0.3295,0.3421,0.3407,0.3395,0.3349,0.3437,0.3459,0.3474,0.3272,0.3271,0.3269,0.3269,0,0,0.2308,0.2427,0.2447,0.2501,0.2622,0.2661,0.278,0.2897,0.2985,0.3092,0.3207,0.3325,0.3381,0.3424,0.3458,0.3504,0.3604,0.3492,0.3494,0.3505,0.3736,0.3515,0.351,0.3622,0.3625,0.3628,0.3712,0,0.2333,0.242,0.2488,0.2588,0.2643,0.2755,0.2848,0.2967,0.3075,0.3199,0.3298,0.3416,0.3424,0.3492,0.355,0.3603,0.3651,0.3581,0.3663,0.3665,0.3445,0.3523,0.3639,0.3723,0.3727,0.3729,0.3731,0,0.234,0.2404,0.2503,0.2634,0.2675,0.2752,0.2937,0.3032,0.3214,0.3304,0.3451,0.3522,0.3654,0.3619,0.3764,0.3727,0.3747,0.3757,0.3761,0.3543,0.3472,0.3622,0.3759,0.3757,0.3755,0.3753,0.3751,0,0.2275,0.2412,0.2495,0.254,0.2696,0.2793,0.29,0.3084,0.3182,0.3389,0.3482,0.3639,0.3739,0.3803,0.3861,0.3831,0.3974,0.393,0.3748,0.3732,0.3878,0.3863,0.4017,0.4017,0.4017,0.4017,0.4017,0,0.2246,0.2317,0.2479,0.2518,0.2637,0.2773,0.2923,0.3059,0.3248,0.336,0.3541,0.3633,0.3794,0.3892,0.3908,0.3881,0.403,0.3767,0.3745,0.39,0.3887,0.3888,0.3872,0.402,0.4019,0.4019,0.4018,0,0.2153,0.226,0.2357,0.2539,0.2605,0.2698,0.2915,0.3003,0.322,0.3373,0.3446,0.3671,0.3801,0.3917,0.4023,0.3923,0.3921,0.3873,0.4038,0.4023,0.3616,0.3603,0.3654,0.3647,0.3642,0.3637,0.3632,0,0.2107,0.2148,0.2343,0.24,0.2495,0.265,0.2742,0.2968,0.3063,0.3358,0.3404,0.3619,0.3743,0.3723,0.3857,0.388,0.3838,0.38,0.3688,0.3608,0.3584,0.358,0.3575,0.3623,0.3622,0.362,0.3618,0,0.2013,0.2106,0.2183,0.2298,0.2405,0.2503,0.2665,0.2709,0.2965,0.3179,0.3281,0.3354,0.3497,0.3576,0.3638,0.3641,0.3798,0.3737,0.3747,0.3642,0.3571,0.3552,0.3553,0.3598,0.3601,0.3603,0.3604,0,0.1949,0.1973,0.208,0.2165,0.228,0.2322,0.243,0.254,0.2659,0.2983,0.3006,0.3244,0.3455,0.3454,0.3504,0.3504,0.3437,0.3298,0.333,0.3355,0.3219,0.3083,0.2949,0,0,0,0,0,0.1865,0.1866,0.193,0.2001,0.2103,0.2175,0.2352,0.2467,0.2712,0.2705,0.2849,0.2965,0.3055,0.3178,0.3118,0.3371,0.345,0.3284,0.3305,0.3484,0.3508,0.3377,0,0,0,0,0,0,0.18,0.1856,0.1868,0.184,0.186,0.1951,0.2057,0.2227,0.2246,0.2509,0.258,0.2774,0.2916,0.306,0.3057,0.3093,0.3042,0.3435,0.3426,0.3471,0.3492,0.3511,0.3385,0,0,0,0,0]},{"header":{"parameterUnit":"m.s-1","parameterCategory":2,"la1":30.2991,"la2":30.254,"lo1":-89.0895,"lo2":-89.0444,"dy":0.0017,"dx":0.0017,"nx":28,"ny":28,"refTime":"2024-06-21T09:00:00:Z","depth":"4","parameterNumber":3,"parameterNumberName":"V-component_of_CURRENTS"},"data":[0,0,0,0,0,0,0,0,0,0,0,0,0,0,0,0,0,0,0,0,0,0,0,0,0,0,0,0,0,0,0,0,0,0,0,0,0,0,0,0,0,0,0,0,0,0,0,0,0,0,0,0,0,0,0,0,0,0,0.0298,0.0298,0,0.0268,0.0268,0.0267,0.0256,0.0256,0.0256,0.0256,0.0173,0.0171,0.0169,0,0,0,0,0,0,0,0,0,0,0,0,0,0.0299,0.0299,0.0298,0.0298,0.0297,0.0268,0.0268,0.0267,0.0256,0.0256,0.0256,0.0255,0.0174,0.0171,0.0169,0,0,0,0,0,0,0,0,0,0,0,0,0,0.0288,0.0299,0.0298,0.0287,0.0285,0.0268,0.0268,0.0267,0.0256,0.0256,0.0256,0.0255,0.0175,0.0172,0.0168,0.0151,0,0,0.0159,0.0157,0,0,0,0,0,0,0,0,0.0289,0.0288,0.0289,0.0287,0.0286,0.0264,0.0237,0.0225,0.0256,0.0269,0.0256,0.0255,0.0198,0.0193,0.019,0.0147,0.0143,0.0158,0.0156,0.0155,0.0154,0,0,0,0,0,0,0,0.0289,0.0289,0.0288,0.0288,0.0286,0.0266,0.0266,0.0235,0.0234,0.0267,0.0266,0.026,0.0197,0.0193,0.0188,0.0142,0.0159,0.0156,0.0154,0.0152,0.0067,0.0067,0,0,0,0,0,0,0.0293,0.029,0.0289,0.0287,0.0285,0.0267,0.0266,0.0272,0.0236,0.023,0.026,0.026,0.0199,0.0192,0.0185,0.0171,0.0155,0.0152,0.015,0.0067,0.0067,0.0067,0,0,0,0,0,0,0.0293,0.0293,0.029,0.0285,0.0283,0.0267,0.0274,0.0272,0.0274,0.0231,0.0224,0.0266,0.0199,0.0189,0.0166,0.0167,0.0151,0.0148,0.0068,0.0067,0.0067,0.0137,0,0,0,0,0,0,0.0294,0.0294,0.0302,0.0286,0.0284,0.0288,0.0274,0.0271,0.0269,0.0268,0.0233,0.0225,0.0198,0.0171,0.0163,0.0163,0.0145,0.0068,0.0068,0.0067,0.0135,0.0139,0.0142,0,0,0,0,0,0.0294,0.0305,0.0303,0.0303,0.0296,0.0289,0.0286,0.0274,0.027,0.0275,0.025,0.0226,0.016,0.0169,0.0159,0.0158,0.0069,0.0068,0.0067,0.0133,0.0138,0.0142,0,0,0,0,0,0,0.0311,0.0304,0.0302,0.0312,0.0304,0.0286,0.0288,0.028,0.0266,0.0266,0.0228,0.0218,0.0195,0.0164,0.0174,0.0128,0.0108,0.0105,0.0161,0.0165,0.0169,0.0187,0.0143,0,0,0,0,0,0.0318,0.0327,0.0315,0.0324,0.0322,0.0308,0.0304,0.0298,0.0281,0.0276,0.025,0.0215,0.0183,0.0167,0.0134,0.0114,0.0076,0.0103,0.0106,0.011,0.0116,0.006,0.0059,0.0064,0.0064,0.0064,0,0,0.0326,0.0325,0.0329,0.0328,0.0322,0.0328,0.0306,0.0307,0.0312,0.0267,0.0265,0.0228,0.0179,0.0158,0.0144,0.0135,0.0088,0.0109,0.0112,0.0117,0.0059,0.0059,0.0058,0.0064,0.0064,0.0064,0,0,0.0347,0.0349,0.0362,0.0359,0.0354,0.0347,0.035,0.0337,0.0333,0.0323,0.0288,0.0256,0.0213,0.0179,0.0155,0.0155,0.0108,0.0141,0.0176,0.0121,0.0121,0.012,0.0075,0.0069,0.0143,0.0143,0.0144,0,0.0355,0.0375,0.0363,0.0374,0.0379,0.0359,0.0376,0.0367,0.0348,0.0346,0.0331,0.0266,0.0222,0.0191,0.019,0.0164,0.013,0.0169,0.0128,0.0126,0.0124,0.0077,0.0071,0.0147,0.0146,0.0146,0.0146,0,0.0383,0.0399,0.0407,0.0419,0.0422,0.0433,0.0421,0.0424,0.0414,0.0399,0.0372,0.0315,0.0279,0.0252,0.0221,0.0186,0.0165,0.0141,0.0124,0.0128,0.0078,0.007,0.0151,0.015,0.0149,0.0148,0,0,0.0403,0.0423,0.0428,0.045,0.0449,0.0462,0.0469,0.0472,0.0487,0.0449,0.0453,0.0383,0.0355,0.0324,0.0276,0.0224,0.0174,0.0184,0.0179,0.0151,0.0061,0.0045,0.0034,0.0145,0.0144,0.0143,0.0034,0,0.043,0.0469,0.0468,0.0512,0.0534,0.0526,0.0541,0.054,0.0528,0.0524,0.0457,0.044,0.0381,0.037,0.0308,0.0211,0.0155,0.0206,0.005,0.0045,0.0041,0.0024,0.0139,0.0028,0.0026,0.0024,0.0023,0,0.0458,0.0485,0.0534,0.0577,0.0587,0.061,0.0644,0.0657,0.0636,0.0624,0.0587,0.0536,0.0464,0.0412,0.0251,0.0289,0.0182,0.01,0.0093,0.0049,0.0014,0.0018,0.0007,0.0008,0.0009,0.0011,0.0012,0,0.049,0.0534,0.0583,0.0596,0.0634,0.0663,0.0688,0.0691,0.0721,0.0695,0.0704,0.0604,0.057,0.0422,0.0254,0.0252,0.0071,0.0043,-0.0075,-0.0077,-0.0059,-0.0057,-0.008,-0.008,-0.008,-0.008,-0.0079,0,0.0518,0.0559,0.061,0.0637,0.0715,0.0721,0.0795,0.08,0.0815,0.0859,0.0769,0.0765,0.057,0.0447,0.0278,0.0082,0.0085,-0.0071,-0.0109,-0.0028,-0.0021,-0.0065,-0.0062,-0.0084,-0.0083,-0.0082,-0.0081,0,0.0543,0.057,0.0638,0.07,0.0735,0.0795,0.0885,0.093,0.0936,0.0987,0.0986,0.0885,0.0725,0.0517,0.0275,0.0128,-0.0069,-0.0143,-0.003,-0.0059,-0.0187,-0.0179,-0.0284,-0.0285,-0.0286,-0.0287,-0.0288,0,0.0555,0.0594,0.0698,0.0756,0.0792,0.0886,0.0953,0.0993,0.1049,0.1063,0.1089,0.0958,0.0862,0.0524,0.0283,-0.0044,-0.0098,-0.0205,-0.0213,-0.0183,-0.021,-0.0199,-0.019,-0.029,-0.0291,-0.0291,-0.0291,0,0.0583,0.0627,0.0689,0.0813,0.0901,0.1009,0.1107,0.1157,0.1208,0.1209,0.118,0.1003,0.0818,0.0538,0.0282,0.0044,-0.0139,-0.022,-0.0219,-0.0227,-0.0193,-0.0215,-0.0205,-0.0296,-0.0295,-0.0295,-0.0295,0,0.0614,0.0664,0.0756,0.0867,0.0987,0.1103,0.1149,0.1216,0.1271,0.1281,0.1266,0.1061,0.0942,0.0583,0.0349,0.0111,0.004,-0.0048,-0.0058,-0.0056,0.0033,0.0111,0.0068,0,0,0,0,0,0.0641,0.0703,0.0801,0.0926,0.1044,0.1121,0.1244,0.1279,0.1328,0.1323,0.1302,0.1131,0.0783,0.0631,0.0392,0.0297,-0.0019,0.0004,-0.0128,-0.0321,-0.0316,-0.0254,0,0,0,0,0,0,0.0659,0.0753,0.0802,0.0962,0.1052,0.119,0.1275,0.1305,0.1308,0.1314,0.114,0.1053,0.0719,0.0923,0.0383,0.0309,0.0187,-0.0156,-0.0162,-0.0324,-0.0319,-0.0315,-0.0249,0,0,0,0,0]}]]